• In United Kingdom
  • List of Countries
  • For 7 days
  • Water Temperature
  • Satellite Maps
  • Weather Map
  • Weather Widgets
  • user-avatar
    Login

    Hourly Weather Albany

    Today, 24 June, Saturday

    Time Temperature Precipitation Wind Pressure Humidity
    00:00 +13°C° 0 mm 4 mps 766 mmHg 75%
    01:00 +13°C° 0 mm 4 mps 766 mmHg 75%
    02:00 +13°C° 0 mm 4 mps 766 mmHg 75%
    03:00 +13°C° 0 mm 3 mps 766 mmHg 76%
    04:00 +13°C° 0 mm 3 mps 765 mmHg 77%
    05:00 +13°C° 0 mm 3 mps 765 mmHg 78%
    06:00 +13°C° 0 mm 3 mps 766 mmHg 77%
    07:00 +13°C° 0 mm 3 mps 766 mmHg 75%
    08:00 +13°C° 0 mm 3 mps 766 mmHg 74%
    09:00 +14°C° 0.1 mm 3 mps 766 mmHg 71%
    10:00 +15°C° 0.1 mm 4 mps 766 mmHg 69%
    11:00 +15°C° 0.1 mm 4 mps 766 mmHg 66%
    12:00 +15°C° 0.1 mm 4 mps 766 mmHg 66%
    13:00 +15°C° 0.1 mm 4 mps 766 mmHg 66%
    14:00 +15°C° 0.1 mm 4 mps 765 mmHg 66%
    15:00 +14°C° 0 mm 4 mps 765 mmHg 68%
    16:00 +14°C° 0 mm 4 mps 765 mmHg 69%
    17:00 +14°C° 0 mm 4 mps 765 mmHg 71%
    18:00 +13°C° 0 mm 4 mps 766 mmHg 71%
    19:00 +13°C° 0 mm 3 mps 766 mmHg 70%
    20:00 +13°C° 0 mm 3 mps 766 mmHg 70%
    21:00 +13°C° 0 mm 3 mps 766 mmHg 70%
    22:00 +13°C° 0 mm 3 mps 766 mmHg 70%
    23:00 +13°C° 0 mm 3 mps 766 mmHg 70%

    Tomorrow, 25 June, Sunday

    Time Temperature Precipitation Wind Pressure Humidity
    00:00 +13°C° 0 mm 3 mps 766 mmHg 71%
    01:00 +13°C° 0 mm 2 mps 766 mmHg 73%
    02:00 +13°C° 0 mm 2 mps 766 mmHg 75%
    03:00 +13°C° 0.1 mm 2 mps 766 mmHg 75%
    04:00 +13°C° 0.1 mm 2 mps 766 mmHg 75%
    05:00 +13°C° 0.1 mm 2 mps 766 mmHg 76%
    06:00 +13°C° 0.1 mm 2 mps 766 mmHg 79%
    07:00 +12°C° 0.1 mm 2 mps 766 mmHg 82%
    08:00 +12°C° 0.1 mm 2 mps 767 mmHg 86%
    09:00 +13°C° 0.2 mm 2 mps 767 mmHg 82%
    10:00 +14°C° 0.2 mm 2 mps 767 mmHg 79%
    11:00 +15°C° 0.2 mm 2 mps 767 mmHg 75%
    12:00 +15°C° 0.3 mm 2 mps 767 mmHg 76%
    13:00 +15°C° 0.3 mm 2 mps 766 mmHg 77%
    14:00 +15°C° 0.3 mm 2 mps 766 mmHg 79%
    15:00 +14°C° 0.2 mm 2 mps 766 mmHg 81%
    16:00 +14°C° 0.2 mm 2 mps 766 mmHg 83%
    17:00 +13°C° 0.2 mm 2 mps 766 mmHg 86%
    18:00 +13°C° 0.1 mm 2 mps 766 mmHg 86%
    19:00 +12°C° 0.1 mm 2 mps 766 mmHg 87%
    20:00 +11°C° 0.1 mm 1 mps 766 mmHg 87%
    21:00 +11°C° 0 mm 1 mps 766 mmHg 87%
    22:00 +11°C° 0 mm 1 mps 766 mmHg 87%
    23:00 +11°C° 0 mm 1 mps 766 mmHg 87%

    Day after tomorrow, 26 June, Monday

    Time Temperature Precipitation Wind Pressure Humidity
    00:00 +11°C° 0.1 mm 1 mps 766 mmHg 87%
    01:00 +10°C° 0.1 mm 2 mps 766 mmHg 88%
    02:00 +10°C° 0.1 mm 2 mps 766 mmHg 89%
    03:00 +10°C° 0.2 mm 2 mps 766 mmHg 89%
    04:00 +10°C° 0.2 mm 3 mps 766 mmHg 89%
    05:00 +10°C° 0.2 mm 3 mps 766 mmHg 89%
    06:00 +10°C° 0.2 mm 3 mps 766 mmHg 89%
    07:00 +10°C° 0.2 mm 3 mps 766 mmHg 89%
    08:00 +10°C° 0.2 mm 3 mps 766 mmHg 89%
    09:00 +11°C° 0.2 mm 3 mps 766 mmHg 85%
    10:00 +12°C° 0.2 mm 4 mps 766 mmHg 82%
    11:00 +14°C° 0.2 mm 4 mps 766 mmHg 78%
    12:00 +14°C° 0.5 mm 4 mps 766 mmHg 78%
    13:00 +14°C° 0.5 mm 5 mps 765 mmHg 77%
    14:00 +15°C° 0.5 mm 5 mps 765 mmHg 77%
    15:00 +14°C° 0.5 mm 5 mps 765 mmHg 80%
    16:00 +13°C° 0.5 mm 5 mps 765 mmHg 83%
    17:00 +12°C° 0.5 mm 5 mps 765 mmHg 86%
    18:00 +12°C° 0.4 mm 5 mps 766 mmHg 85%
    19:00 +12°C° 0.4 mm 4 mps 766 mmHg 83%
    20:00 +12°C° 0.4 mm 4 mps 767 mmHg 82%
    21:00 +11°C° 0.2 mm 4 mps 767 mmHg 83%
    22:00 +11°C° 0.2 mm 3 mps 767 mmHg 84%
    23:00 +11°C° 0.2 mm 3 mps 767 mmHg 85%

    27 June, Tuesday

    Time Temperature Precipitation Wind Pressure Humidity
    00:00 +10°C° 0.2 mm 2 mps 767 mmHg 86%
    01:00 +10°C° 0.2 mm 2 mps 767 mmHg 88%
    02:00 +10°C° 0.2 mm 2 mps 767 mmHg 89%
    03:00 +10°C° 0.2 mm 2 mps 767 mmHg 90%
    04:00 +10°C° 0.2 mm 3 mps 767 mmHg 91%
    05:00 +10°C° 0.2 mm 3 mps 767 mmHg 92%
    06:00 +11°C° 0.2 mm 4 mps 768 mmHg 91%
    07:00 +11°C° 0.2 mm 4 mps 768 mmHg 91%
    08:00 +12°C° 0.2 mm 4 mps 769 mmHg 90%
    09:00 +12°C° 0.2 mm 5 mps 769 mmHg 87%
    10:00 +13°C° 0.2 mm 5 mps 769 mmHg 84%
    11:00 +14°C° 0.2 mm 6 mps 770 mmHg 81%
    12:00 +14°C° 0.1 mm 5 mps 769 mmHg 77%
    13:00 +15°C° 0.1 mm 5 mps 769 mmHg 72%
    14:00 +15°C° 0.1 mm 5 mps 769 mmHg 68%
    15:00 +15°C° 0 mm 5 mps 769 mmHg 68%
    16:00 +14°C° 0 mm 5 mps 770 mmHg 68%
    17:00 +14°C° 0 mm 4 mps 770 mmHg 69%
    18:00 +13°C° 0 mm 4 mps 771 mmHg 70%
    19:00 +13°C° 0 mm 4 mps 771 mmHg 71%
    20:00 +13°C° 0 mm 4 mps 772 mmHg 72%
    21:00 +12°C° 0 mm 4 mps 772 mmHg 73%
    22:00 +12°C° 0 mm 4 mps 772 mmHg 75%
    23:00 +12°C° 0 mm 3 mps 772 mmHg 77%

    28 June, Wednesday

    Time Temperature Precipitation Wind Pressure Humidity
    00:00 +11°C° 0 mm 3 mps 772 mmHg 78%
    01:00 +11°C° 0 mm 3 mps 772 mmHg 79%
    02:00 +10°C° 0 mm 3 mps 772 mmHg 81%
    03:00 +10°C° 0 mm 3 mps 772 mmHg 82%
    04:00 +10°C° 0 mm 3 mps 772 mmHg 83%
    05:00 +10°C° 0 mm 3 mps 772 mmHg 83%
    06:00 +10°C° 0 mm 3 mps 772 mmHg 84%
    07:00 +9°C° 0 mm 3 mps 772 mmHg 84%
    08:00 +9°C° 0 mm 3 mps 773 mmHg 84%
    09:00 +11°C° 0 mm 3 mps 773 mmHg 76%
    10:00 +13°C° 0 mm 3 mps 772 mmHg 68%
    11:00 +14°C° 0 mm 4 mps 772 mmHg 60%
    12:00 +16°C° 0 mm 3 mps 772 mmHg 57%
    13:00 +16°C° 0 mm 3 mps 771 mmHg 53%
    14:00 +17°C° 0 mm 3 mps 771 mmHg 50%
    15:00 +16°C° 0 mm 3 mps 771 mmHg 54%
    16:00 +14°C° 0 mm 3 mps 771 mmHg 59%
    17:00 +13°C° 0 mm 3 mps 771 mmHg 63%
    18:00 +12°C° 0 mm 3 mps 771 mmHg 65%
    19:00 +11°C° 0 mm 4 mps 771 mmHg 68%
    20:00 +10°C° 0 mm 4 mps 771 mmHg 70%
    21:00 +10°C° 0 mm 4 mps 771 mmHg 70%
    22:00 +10°C° 0 mm 4 mps 771 mmHg 71%
    23:00 +8°C° 0 mm 4 mps 770 mmHg 72%

    29 June, Thursday

    Time Temperature Precipitation Wind Pressure Humidity
    00:00 +8°C° 0 mm 4 mps 770 mmHg 71%
    01:00 +8°C° 0 mm 5 mps 770 mmHg 70%
    02:00 +7°C° 0 mm 5 mps 770 mmHg 68%
    03:00 +7°C° 0 mm 5 mps 769 mmHg 68%
    04:00 +7°C° 0 mm 5 mps 769 mmHg 68%
    05:00 +7°C° 0 mm 5 mps 769 mmHg 68%
    06:00 +7°C° 0 mm 5 mps 769 mmHg 67%
    07:00 +7°C° 0 mm 6 mps 769 mmHg 66%
    08:00 +7°C° 0 mm 6 mps 769 mmHg 65%
    09:00 +9°C° 0 mm 6 mps 769 mmHg 59%
    10:00 +11°C° 0 mm 6 mps 769 mmHg 53%
    11:00 +13°C° 0 mm 6 mps 768 mmHg 46%
    12:00 +14°C° 0 mm 6 mps 767 mmHg 44%
    13:00 +15°C° 0 mm 5 mps 767 mmHg 41%
    14:00 +16°C° 0 mm 5 mps 766 mmHg 38%
    15:00 +15°C° 0 mm 5 mps 766 mmHg 42%
    16:00 +14°C° 0 mm 4 mps 765 mmHg 47%
    17:00 +12°C° 0 mm 4 mps 765 mmHg 51%
    18:00 +12°C° 0 mm 4 mps 765 mmHg 54%
    19:00 +10°C° 0 mm 5 mps 765 mmHg 58%
    20:00 +9°C° 0 mm 5 mps 765 mmHg 62%
    21:00 +9°C° 0 mm 5 mps 765 mmHg 61%
    22:00 +9°C° 0 mm 5 mps 765 mmHg 61%
    23:00 +9°C° 0 mm 6 mps 764 mmHg 61%
    Show more